Tracking 18871 objects as of 13-Dec-2017
HD Live streaming from Space Station
objects crossing your sky now

DELTA 1 R/B

Track DELTA 1 R/B now!
10-day predictions


NORAD ID: 2661
Int'l Code: 1967-006B
Perigee: 1,347.0 km
Apogee: 1,448.1 km
Inclination: 101.9 °
Period: 113.6 minutes
Semi major axis: 7768 km
RCS: 0.6811 m2 (medium)
Launch date: January 26, 1967
Source: United States (US)
Launch site: AIR FORCE WESTERN TEST RANGE (AFWTR)

Note: This is a ROCKET BODY
aabbcc
Your satellite tracking list
Your tracking list is empty




NASA's NSSDC Master Catalog

Two Line Element Set (TLE):
1  2661U 67006B   17346.20794709 -.00000032 +00000-0 +78942-4 0  9993
2  2661 101.9072 260.5204 0065053 026.5370 142.6405 12.67930261354111
Source of the keplerian elements: AFSPC